Home   Weather   Sarnen   Past weeks

Flag for Switzerland Past Weather in Sarnen, Obwalden, Switzerland — Yesterday and Last 2 Weeks

Now
65 °F

Mild.


Feels Like: 65 °F
Forecast: 50 / 68 °F
Wind: 1 mph from Southwest

Location: Giswil

Current Time: Sep 25, 2016 at 7:27:03 PM

Latest Report: Sep 25, 2016 at 6:00 PM


Visibility: N/A

Pressure: 30.11 "Hg

Humidity: 80%

Dew Point: 59 °F

Location of SarnenLocation

Past Weather in Sarnen — Graph

°F

Sarnen Temperature Yesterday

Maximum temperature yesterday: 69 °F (at 5:00 PM)
Minimum temperature yesterday: 46 °F (at 7:00 AM)
Average temperature yesterday: 56 °F

High & Low Weather Summary for the Past Weeks

 TemperatureHumidityPressure
High81 °F (Sep 12, 3:00 PM)100% (Sep 11, 3:00 AM)30.34 "Hg (Sep 11, 3:00 AM)
Low44 °F (Sep 25, 7:00 AM)43% (Sep 12, 2:00 PM)29.74 "Hg (Sep 15, 5:00 AM)
Average60 °F86%30.06 "Hg
* Reported Sep 10 6:00 PM — Sep 25 6:00 PM, Sarnen, Weather by CustomWeather, © 2016

Note: Actual official high and low records may vary slightly from our data, if they occured in-between our weather recording intervals... More about our weather records

Advertising

Sarnen Weather History for the Previous 24 Hours

Scroll right to see more
 ConditionsComfort  
Time TempWeatherWind HumidityBarometerVisibility
6:00 PM
Sun, Sep 25
65 °FMild.1 mph80%30.11 "HgN/A
5:00 PM68 °FMild.3 mph67%30.08 "HgN/A
4:00 PM71 °FMild.2 mph57%30.07 "HgN/A
3:00 PM70 °FMild.2 mph56%30.08 "HgN/A
2:00 PM69 °FMild.1 mph55%30.10 "HgN/A
1:00 PM66 °FMild.2 mph57%30.12 "HgN/A
12:00 PM63 °FMild.2 mph68%30.15 "HgN/A
11:00 AM59 °FCool.1 mph79%30.18 "HgN/A
10:00 AM55 °FCool.No wind96%30.20 "HgN/A
9:00 AM47 °FCool.1 mph100%30.23 "HgN/A
8:00 AM44 °FQuite cool.1 mph99%30.24 "HgN/A
7:00 AM44 °FQuite cool.1 mph99%30.24 "HgN/A
6:00 AM44 °FQuite cool.2 mph99%30.24 "HgN/A
5:00 AM44 °FQuite cool.2 mph99%30.24 "HgN/A
4:00 AM46 °FCool.1 mph99%30.24 "HgN/A
3:00 AM46 °FCool.1 mph99%30.24 "HgN/A
2:00 AM47 °FCool.2 mph99%30.24 "HgN/A
1:00 AM47 °FCool.1 mph99%30.24 "HgN/A
12:00 AM49 °FCool.1 mph99%30.24 "HgN/A
11:00 PM
Sat, Sep 24
49 °FCool.2 mph99%30.23 "HgN/A
10:00 PM52 °FCool.1 mph99%30.24 "HgN/A
9:00 PM53 °FCool.1 mph99%30.23 "HgN/A
8:00 PM56 °FCool.3 mph91%30.21 "HgN/A
7:00 PM61 °FCool.3 mph80%30.20 "HgN/A
Weather by CustomWeather, © 2016

See weather overviewHow to use our weather pages